TimeMDT,TemperatureF,Dew PointF,Humidity,Sea Level PressureIn,VisibilityMPH,Wind Direction,Wind SpeedMPH,Gust SpeedMPH,PrecipitationIn,Events,Conditions,WindDirDegrees,DateUTC
12:43 AM,75.2,48.2,38,29.92,8.0,Calm,Calm,-,N/A,,Overcast,0,2012-10-15 06:43:00
1:42 AM,75.2,50.0,41,29.93,8.0,Calm,Calm,-,N/A,,Overcast,0,2012-10-15 07:42:00
2:42 AM,75.2,50.0,41,29.90,8.0,Calm,Calm,-,N/A,,Overcast,0,2012-10-15 08:42:00
3:42 AM,69.8,50.0,49,29.92,8.0,Calm,Calm,-,N/A,,Overcast,0,2012-10-15 09:42:00
4:41 AM,69.8,50.0,49,29.91,8.0,Calm,Calm,-,N/A,,Overcast,0,2012-10-15 10:41:00
5:50 AM,69.8,50.0,49,29.89,8.0,Calm,Calm,-,N/A,,Overcast,0,2012-10-15 11:50:00
6:42 AM,71.6,42.8,35,29.92,8.0,Calm,Calm,-,N/A,,Overcast,0,2012-10-15 12:42:00
7:42 AM,71.6,42.8,35,29.92,10.0,Calm,Calm,-,N/A,,Overcast,0,2012-10-15 13:42:00
8:40 AM,72,45,27,29.91,7,NE,2.2,,,,Mostly Cloudy,40,2012-10-15 14:40:00
8:41 AM,73.4,44.6,36,29.90,10.0,Calm,Calm,-,N/A,,Overcast,0,2012-10-15 14:41:00
9:49 AM,80.6,39.2,23,29.95,10.0,ENE,8.1,-,N/A,,Overcast,60,2012-10-15 15:49:00
10:43 AM,82.4,41.0,23,29.96,10.0,ESE,4.6,-,N/A,,Overcast,120,2012-10-15 16:43:00
11:41 AM,82.4,41.0,23,29.91,10.0,ESE,8.1,-,N/A,,Overcast,110,2012-10-15 17:41:00
11:50 AM,79,51,27,29.92,7,NE,2.2,,,,Overcast,40,2012-10-15 17:50:00
12:40 PM,84.2,37.4,19,29.96,10.0,East,10.4,-,N/A,,Overcast,100,2012-10-15 18:40:00
1:40 PM,84.2,42.8,23,29.93,10.0,Calm,Calm,-,N/A,,Overcast,0,2012-10-15 19:40:00
2:40 PM,84,48,19,29.87,7,SW,2.2,,,,Overcast,230,2012-10-15 20:40:00
2:44 PM,86.0,42.8,22,29.86,10.0,West,4.6,-,N/A,,Overcast,260,2012-10-15 20:44:00
3:46 PM,87.8,41.0,19,29.89,10.0,Calm,Calm,-,N/A,,Overcast,0,2012-10-15 21:46:00
4:42 PM,87.8,39.2,18,29.87,10.0,Calm,Calm,-,N/A,,Overcast,0,2012-10-15 22:42:00
5:35 PM,86,52,21,29.83,7,SW,2.2,,,,Overcast,230,2012-10-15 23:35:00
5:50 PM,87.8,39.2,18,29.84,10.0,Calm,Calm,-,N/A,,Overcast,0,2012-10-15 23:50:00
6:51 PM,86.0,41.0,20,29.89,10.0,Calm,Calm,-,N/A,,Mostly Cloudy,0,2012-10-16 00:51:00
7:48 PM,82.4,44.6,26,29.87,8.0,Calm,Calm,-,N/A,,Mostly Cloudy,0,2012-10-16 01:48:00
8:30 PM,81,48,22,29.86,5,WSW,2.2,,,,Mostly Cloudy,240,2012-10-16 02:30:00
8:40 PM,82.4,42.8,25,29.84,8.0,South,5.8,-,N/A,,Mostly Cloudy,170,2012-10-16 02:40:00
9:45 PM,82.4,44.6,26,29.90,8.0,Calm,Calm,-,N/A,,Overcast,0,2012-10-16 03:45:00
10:41 PM,78.8,46.4,32,29.91,10.0,Calm,Calm,-,N/A,,Overcast,0,2012-10-16 04:41:00
11:30 PM,79,55,33,29.87,5,SE,2.2,,,,Mostly Cloudy,140,2012-10-16 05:30:00
11:43 PM,75.2,48.2,38,29.88,10.0,Calm,Calm,-,N/A,,Overcast,0,2012-10-16 05:43:00